DW8572 Weather Reports


Display with metric or nautical units.
time (UTC)temp
F
wind
direction
speed
MPH
gust
MPH
rain 1hr
in
rain 24hr
in
rain mn
in
humidity
%
barometer
mb
20260504201519 76 220 0.0 0.0 0.00 0.00 0.00 47 1001.5
20260504200017 74 213 0.0 0.0 0.00 0.00 0.00 50 1001.8
20260504194528 75 209 0.0 0.0 0.00 0.00 0.00 49 1001.9
20260504193017 75 194 0.0 0.0 0.00 0.00 0.00 51 1001.9
20260504191513 76 216 0.0 0.0 0.00 0.00 0.00 49 1002.0
20260504190010 74 217 0.0 0.0 0.00 0.00 0.00 53 1002.1
20260504184511 75 213 0.0 0.0 0.00 0.00 0.00 52 1002.3
20260504183007 74 194 0.0 0.0 0.00 0.00 0.00 55 1002.6
20260504181503 74 199 0.0 0.0 0.00 0.00 0.00 56 1002.7
20260504180203 73 200 0.0 0.0 0.00 0.00 0.00 55 1003.0
20260504174557 72 202 0.0 0.0 0.00 0.00 0.00 55 1003.2
20260504173110 71 227 0.0 0.0 0.00 0.00 0.00 52 1003.6
20260504171553 71 172 0.0 0.0 0.00 0.00 0.00 49 1003.8
20260504120107 52 209 0.0 0.0 0.00 0.00 0.00 78 1006.2
20260504081521 46 173 0.0 0.0 0.00 0.00 0.00 84 1006.7
20260504050133 46 171 0.0 0.0 0.00 0.00 0.00 83 1009.1
20260504044558 47 171 0.0 0.0 0.00 0.00 0.00 83 1009.1
20260504043059 47 171 0.0 0.0 0.00 0.00 0.00 81 1009.2
20260504041550 48 171 0.0 0.0 0.00 0.00 0.00 81 1009.4
20260504040049 47 171 0.0 0.0 0.00 0.00 0.00 81 1009.3
20260504034552 48 171 0.0 0.0 0.00 0.00 0.00 80 1009.5
20260504033048 48 173 0.0 0.0 0.00 0.00 0.00 80 1009.6
20260504031603 48 161 0.0 0.0 0.00 0.00 0.00 81 1009.8
20260504030044 48 161 0.0 0.0 0.00 0.00 0.00 80 1010.0
20260504024543 49 155 0.0 0.0 0.00 0.00 0.00 79 1010.2
20260504023041 49 154 0.0 0.0 0.00 0.00 0.00 79 1010.3
20260504021540 49 154 0.0 0.0 0.00 0.00 0.00 79 1010.2
20260504020041 49 154 0.0 0.0 0.00 0.00 0.00 79 1010.4
20260504014539 49 155 0.0 0.0 0.00 0.00 0.00 79 1010.3
20260504013039 49 155 0.0 0.0 0.00 0.00 0.00 80 1010.3
20260504011541 49 155 0.0 0.0 0.00 0.00 0.00 79 1010.3
20260504010043 49 155 0.0 0.0 0.00 0.00 0.00 79 1010.5
20260504004536 49 156 0.0 0.0 0.00 0.00 0.00 78 1010.5
20260504003041 50 161 0.0 0.0 0.00 0.00 0.00 77 1010.7
20260504001537 50 169 0.0 0.0 0.00 0.00 0.00 76 1010.8
20260504000034 50 182 0.0 0.0 0.00 0.00 0.00 75 1010.9
20260503234534 50 181 0.0 0.0 0.00 0.00 0.00 75 1010.9
20260503233030 50 161 0.0 0.0 0.00 0.00 0.00 76 1011.1
20260503231543 50 172 0.0 0.0 0.00 0.00 0.00 77 1011.2
20260503230029 50 186 0.0 0.0 0.00 0.00 0.00 77 1011.3
20260503224526 50 190 0.0 0.0 0.00 0.00 0.00 75 1011.5
20260503223026 51 184 0.0 0.0 0.00 0.00 0.00 75 1011.8
20260503221523 51 188 0.0 0.0 0.00 0.00 0.00 74 1012.0
20260503220031 51 178 0.0 0.0 0.00 0.00 0.00 73 1012.0
20260503214519 52 213 0.0 0.0 0.00 0.00 0.00 71 1012.3
20260503213019 52 207 0.0 0.0 0.00 0.00 0.00 69 1012.5
20260503211523 53 197 0.0 0.0 0.00 0.00 0.00 68 1012.8
20260503210019 53 223 0.0 0.0 0.00 0.00 0.00 67 1012.9
20260503204518 55 201 0.0 0.0 0.00 0.00 0.00 64 1012.9
20260503203023 57 201 0.0 0.0 0.00 0.00 0.00 59 1012.8